Time,TemperatureF,DewpointF,PressureIn,WindDirection,WindDirectionDegrees,WindSpeedMPH,WindSpeedGustMPH,Humidity,HourlyPrecipIn,Conditions,Clouds,dailyrainin,SoftwareType,DateUTC
2013-02-14 00:02:00,31.0,26.0,29.77,WNW,287,0.0,0.0,82,0.00,,,0.00,,2013-02-14 05:02:00,
2013-02-14 00:11:00,31.0,26.0,29.77,WNW,287,0.0,0.0,82,0.00,,,0.00,,2013-02-14 05:11:00,
2013-02-14 00:22:00,31.0,26.0,29.78,West,270,0.0,0.0,82,0.00,,,0.00,,2013-02-14 05:22:00,
2013-02-14 00:32:00,31.0,26.0,29.78,West,270,0.0,0.0,82,0.00,,,0.00,,2013-02-14 05:32:00,
2013-02-14 00:42:00,31.0,26.0,29.78,West,270,0.0,0.0,82,0.00,,,0.00,,2013-02-14 05:42:00,
2013-02-14 00:52:00,31.0,26.0,29.79,WSW,248,0.0,0.0,81,0.00,,,0.00,,2013-02-14 05:52:00,
2013-02-14 01:02:00,31.0,26.0,29.80,West,267,0.0,0.0,80,0.00,,,0.00,,2013-02-14 06:02:00,
2013-02-14 01:11:00,31.0,26.0,29.80,WNW,292,0.0,0.0,80,0.00,,,0.00,,2013-02-14 06:11:00,
2013-02-14 01:21:00,31.0,26.0,29.80,WNW,292,0.0,0.0,80,0.00,,,0.00,,2013-02-14 06:21:00,
2013-02-14 01:32:00,31.0,25.0,29.81,WNW,292,0.0,0.0,79,0.00,,,0.00,,2013-02-14 06:32:00,
2013-02-14 01:42:00,31.0,25.0,29.81,WNW,292,0.0,0.0,79,0.00,,,0.00,,2013-02-14 06:42:00,
2013-02-14 01:51:00,31.0,25.0,29.81,West,266,0.0,0.0,79,0.00,,,0.00,,2013-02-14 06:51:00,
2013-02-14 02:01:00,30.0,24.0,29.82,SW,225,0.0,0.0,79,0.00,,,0.00,,2013-02-14 07:01:00,
2013-02-14 02:11:00,30.0,24.0,29.82,SW,225,0.0,0.0,78,0.00,,,0.00,,2013-02-14 07:11:00,
2013-02-14 02:21:00,30.0,24.0,29.82,SW,225,0.0,0.0,78,0.00,,,0.00,,2013-02-14 07:21:00,
2013-02-14 02:32:00,30.0,24.0,29.82,West,270,0.0,0.0,78,0.00,,,0.00,,2013-02-14 07:32:00,
2013-02-14 02:42:00,30.0,24.0,29.82,West,270,0.0,0.0,78,0.00,,,0.00,,2013-02-14 07:42:00,
2013-02-14 02:51:00,30.0,24.0,29.83,West,270,0.0,0.0,78,0.00,,,0.00,,2013-02-14 07:51:00,
2013-02-14 03:01:00,30.0,24.0,29.83,West,270,0.0,0.0,79,0.00,,,0.00,,2013-02-14 08:01:00,
2013-02-14 03:11:00,30.0,24.0,29.83,West,270,0.0,0.0,79,0.00,,,0.00,,2013-02-14 08:11:00,
2013-02-14 03:21:00,30.0,24.0,29.83,West,268,0.0,0.0,79,0.00,,,0.00,,2013-02-14 08:21:00,
2013-02-14 03:32:00,30.0,24.0,29.84,SSW,205,0.0,0.0,78,0.00,,,0.00,,2013-02-14 08:32:00,
2013-02-14 03:43:00,30.0,24.0,29.84,SSW,205,0.0,0.0,78,0.00,,,0.00,,2013-02-14 08:43:00,
2013-02-14 03:52:00,29.0,23.0,29.84,SW,225,0.0,0.0,78,0.00,,,0.00,,2013-02-14 08:52:00,
2013-02-14 04:02:00,29.0,23.0,29.84,SW,225,0.0,0.0,78,0.00,,,0.00,,2013-02-14 09:02:00,
2013-02-14 04:11:00,29.0,23.0,29.84,SW,225,0.0,0.0,78,0.00,,,0.00,,2013-02-14 09:11:00,
2013-02-14 04:21:00,29.0,23.0,29.84,SW,225,0.0,0.0,78,0.00,,,0.00,,2013-02-14 09:21:00,
2013-02-14 04:32:00,29.0,23.0,29.85,SW,225,0.0,0.0,77,0.00,,,0.00,,2013-02-14 09:32:00,
2013-02-14 04:42:00,29.0,23.0,29.85,SW,225,0.0,0.0,77,0.00,,,0.00,,2013-02-14 09:42:00,
2013-02-14 04:51:00,29.0,23.0,29.86,SW,225,0.0,0.0,77,0.00,,,0.00,,2013-02-14 09:51:00,
2013-02-14 05:02:00,29.0,23.0,29.86,SW,232,0.0,0.0,78,0.00,,,0.00,,2013-02-14 10:02:00,
2013-02-14 05:11:00,29.0,23.0,29.87,SW,225,0.0,0.0,78,0.00,,,0.00,,2013-02-14 10:11:00,
2013-02-14 05:21:00,29.0,23.0,29.87,SW,225,0.0,0.0,78,0.00,,,0.00,,2013-02-14 10:21:00,
2013-02-14 05:32:00,29.0,23.0,29.87,SW,225,0.0,0.0,78,0.00,,,0.00,,2013-02-14 10:32:00,
2013-02-14 05:42:00,29.0,23.0,29.87,SW,225,0.0,0.0,78,0.00,,,0.00,,2013-02-14 10:42:00,
2013-02-14 05:52:00,29.0,23.0,29.88,SSW,202,0.0,0.0,77,0.00,,,0.00,,2013-02-14 10:52:00,
2013-02-14 06:02:00,29.0,23.0,29.88,SSW,202,0.0,0.0,77,0.00,,,0.00,,2013-02-14 11:02:00,
2013-02-14 06:11:00,29.0,23.0,29.88,SSW,202,0.0,0.0,77,0.00,,,0.00,,2013-02-14 11:11:00,
2013-02-14 06:21:00,29.0,23.0,29.88,SSW,202,0.0,0.0,77,0.00,,,0.00,,2013-02-14 11:21:00,
2013-02-14 06:32:00,29.0,23.0,29.88,SSW,202,0.0,0.0,78,0.00,,,0.00,,2013-02-14 11:32:00,
2013-02-14 06:42:00,29.0,23.0,29.88,SSW,202,0.0,0.0,78,0.00,,,0.00,,2013-02-14 11:42:00,
2013-02-14 06:52:00,29.0,23.0,29.88,SSW,202,0.0,0.0,78,0.00,,,0.00,,2013-02-14 11:52:00,
2013-02-14 07:02:00,29.0,23.0,29.89,South,180,0.0,0.0,78,0.00,,,0.00,,2013-02-14 12:02:00,
2013-02-14 07:12:00,29.0,23.0,29.89,South,180,0.0,0.0,78,0.00,,,0.00,,2013-02-14 12:12:00,
2013-02-14 07:22:00,29.0,23.0,29.89,SSW,202,0.0,0.0,78,0.00,,,0.00,,2013-02-14 12:22:00,
2013-02-14 07:32:00,29.0,23.0,29.89,SSW,202,0.0,0.0,78,0.00,,,0.00,,2013-02-14 12:32:00,
2013-02-14 07:42:00,29.0,23.0,29.89,SSW,202,0.0,0.0,78,0.00,,,0.00,,2013-02-14 12:42:00,
2013-02-14 07:53:00,29.0,23.0,29.89,SSW,202,0.0,2.0,78,0.00,,,0.00,,2013-02-14 12:53:00,
2013-02-14 08:02:00,29.0,23.0,29.89,SSW,202,0.0,0.0,79,0.00,,,0.00,,2013-02-14 13:02:00,
2013-02-14 08:11:00,29.0,23.0,29.89,SSW,202,0.0,0.0,79,0.00,,,0.00,,2013-02-14 13:11:00,
2013-02-14 08:21:00,29.0,23.0,29.90,SSW,202,0.0,0.0,79,0.00,,,0.00,,2013-02-14 13:21:00,
2013-02-14 08:32:00,29.0,23.0,29.90,SSW,202,0.0,0.0,79,0.00,,,0.00,,2013-02-14 13:32:00,
2013-02-14 08:42:00,29.0,23.0,29.90,SSW,202,0.0,0.0,79,0.00,,,0.00,,2013-02-14 13:42:00,
2013-02-14 08:51:00,29.0,23.0,29.90,SSW,202,0.0,0.0,79,0.00,,,0.00,,2013-02-14 13:51:00,
2013-02-14 09:01:00,30.0,24.0,29.90,SSW,202,1.0,5.0,79,0.00,,,0.00,,2013-02-14 14:01:00,
2013-02-14 09:11:00,30.0,24.0,29.89,SSW,202,3.0,6.0,79,0.00,,,0.00,,2013-02-14 14:11:00,
2013-02-14 09:21:00,30.0,24.0,29.89,SSW,202,3.0,6.0,79,0.00,,,0.00,,2013-02-14 14:21:00,
2013-02-14 09:32:00,31.0,25.0,29.89,SSW,202,1.0,9.0,79,0.00,,,0.00,,2013-02-14 14:32:00,
2013-02-14 09:42:00,31.0,25.0,29.89,SSW,202,1.0,9.0,79,0.00,,,0.00,,2013-02-14 14:42:00,
2013-02-14 09:52:00,32.0,26.0,29.89,WSW,239,2.0,6.0,79,0.00,,,0.00,,2013-02-14 14:52:00,
2013-02-14 10:02:00,32.0,26.0,29.89,SW,223,5.0,8.0,79,0.00,,,0.00,,2013-02-14 15:02:00,
2013-02-14 10:11:00,32.0,26.0,29.89,SW,223,5.0,8.0,79,0.00,,,0.00,,2013-02-14 15:11:00,
2013-02-14 10:21:00,32.0,26.0,29.90,SW,232,7.0,13.0,79,0.00,,,0.00,,2013-02-14 15:21:00,
2013-02-14 10:32:00,33.0,27.0,29.90,SSW,202,6.0,9.0,78,0.00,,,0.00,,2013-02-14 15:32:00,
2013-02-14 10:42:00,33.0,27.0,29.90,SSW,202,6.0,9.0,78,0.00,,,0.00,,2013-02-14 15:42:00,
2013-02-14 10:52:00,33.0,27.0,29.91,SW,228,6.0,10.0,78,0.00,,,0.00,,2013-02-14 15:52:00,
2013-02-14 11:02:00,34.0,28.0,29.91,SW,224,2.0,12.0,77,0.00,,,0.00,,2013-02-14 16:02:00,
2013-02-14 11:11:00,34.0,27.0,29.90,SSW,202,7.0,13.0,76,0.00,,,0.00,,2013-02-14 16:11:00,
2013-02-14 11:21:00,34.0,27.0,29.90,SSW,202,7.0,13.0,76,0.00,,,0.00,,2013-02-14 16:21:00,
2013-02-14 11:32:00,34.0,27.0,29.90,SW,225,3.0,8.0,76,0.00,,,0.00,,2013-02-14 16:32:00,
2013-02-14 11:42:00,34.0,27.0,29.90,SW,225,3.0,8.0,76,0.00,,,0.00,,2013-02-14 16:42:00,
2013-02-14 11:51:00,34.0,27.0,29.91,SSW,211,2.0,13.0,75,0.00,,,0.00,,2013-02-14 16:51:00,
2013-02-14 12:01:00,35.0,28.0,29.91,SSW,202,2.0,7.0,75,0.00,,,0.00,,2013-02-14 17:01:00,
2013-02-14 12:11:00,35.0,28.0,29.91,SSW,211,6.0,12.0,75,0.00,,,0.00,,2013-02-14 17:11:00,
2013-02-14 12:21:00,35.0,28.0,29.91,SSW,211,6.0,12.0,75,0.00,,,0.00,,2013-02-14 17:21:00,
2013-02-14 12:32:00,36.0,29.0,29.90,SW,214,4.0,9.0,74,0.00,,,0.00,,2013-02-14 17:32:00,
2013-02-14 12:42:00,36.0,29.0,29.90,SW,214,4.0,9.0,74,0.00,,,0.00,,2013-02-14 17:42:00,
2013-02-14 12:52:00,36.0,28.0,29.90,SSW,202,2.0,10.0,73,0.02,,,0.02,,2013-02-14 17:52:00,
2013-02-14 13:01:00,37.0,29.0,29.90,SSE,158,0.0,5.0,73,0.06,,,0.06,,2013-02-14 18:01:00,
2013-02-14 13:11:00,37.0,29.0,29.90,SSE,158,0.0,5.0,73,0.06,,,0.06,,2013-02-14 18:11:00,
2013-02-14 13:23:00,37.0,29.0,29.89,SSW,212,3.0,7.0,73,0.06,,,0.06,,2013-02-14 18:23:00,
2013-02-14 13:32:00,38.0,30.0,29.89,SW,234,5.0,12.0,72,0.06,,,0.06,,2013-02-14 18:32:00,
2013-02-14 13:42:00,38.0,30.0,29.89,SW,234,5.0,12.0,72,0.06,,,0.06,,2013-02-14 18:42:00,
2013-02-14 13:51:00,38.0,29.0,29.89,SSW,193,6.0,12.0,71,0.06,,,0.08,,2013-02-14 18:51:00,
2013-02-14 14:02:00,38.0,29.0,29.88,SSW,204,6.0,12.0,71,0.02,,,0.08,,2013-02-14 19:02:00,
2013-02-14 14:11:00,38.0,29.0,29.88,SSW,204,6.0,12.0,71,0.02,,,0.08,,2013-02-14 19:11:00,
2013-02-14 14:21:00,38.0,29.0,29.87,SSW,211,1.0,10.0,71,0.02,,,0.08,,2013-02-14 19:21:00,
2013-02-14 14:32:00,38.0,29.0,29.87,SSW,210,5.0,13.0,70,0.02,,,0.08,,2013-02-14 19:32:00,
2013-02-14 14:42:00,38.0,29.0,29.87,SSW,210,5.0,13.0,70,0.02,,,0.08,,2013-02-14 19:42:00,
2013-02-14 14:51:00,38.0,29.0,29.87,SW,222,0.0,6.0,70,0.02,,,0.08,,2013-02-14 19:51:00,
2013-02-14 15:01:00,38.0,29.0,29.85,SSW,202,4.0,10.0,70,0.00,,,0.08,,2013-02-14 20:01:00,
2013-02-14 15:11:00,39.0,30.0,29.85,SW,225,4.0,9.0,70,0.00,,,0.08,,2013-02-14 20:11:00,
2013-02-14 15:21:00,39.0,30.0,29.85,SW,225,4.0,9.0,70,0.00,,,0.08,,2013-02-14 20:21:00,
2013-02-14 15:32:00,39.0,30.0,29.85,ESE,122,2.0,9.0,69,0.00,,,0.08,,2013-02-14 20:32:00,
2013-02-14 15:42:00,39.0,30.0,29.85,ESE,122,2.0,9.0,69,0.00,,,0.08,,2013-02-14 20:42:00,
2013-02-14 15:52:00,39.0,29.0,29.85,SSW,209,2.0,7.0,68,0.00,,,0.08,,2013-02-14 20:52:00,
2013-02-14 16:02:00,39.0,29.0,29.85,SW,225,0.0,5.0,67,0.00,,,0.08,,2013-02-14 21:02:00,
2013-02-14 16:11:00,39.0,29.0,29.85,SW,225,0.0,5.0,67,0.00,,,0.08,,2013-02-14 21:11:00,
2013-02-14 16:21:00,39.0,29.0,29.84,SW,216,2.0,8.0,67,0.00,,,0.08,,2013-02-14 21:21:00,
2013-02-14 16:32:00,40.0,30.0,29.84,SW,231,0.0,2.0,67,0.00,,,0.08,,2013-02-14 21:32:00,
2013-02-14 16:42:00,40.0,30.0,29.84,SW,231,0.0,2.0,67,0.00,,,0.08,,2013-02-14 21:42:00,
2013-02-14 16:51:00,40.0,30.0,29.83,SW,225,0.0,2.0,66,0.00,,,0.08,,2013-02-14 21:51:00,
2013-02-14 17:02:00,40.0,29.0,29.84,SSW,211,0.0,5.0,65,0.00,,,0.08,,2013-02-14 22:02:00,
2013-02-14 17:11:00,40.0,29.0,29.84,SW,222,0.0,0.0,65,0.00,,,0.08,,2013-02-14 22:11:00,
2013-02-14 17:21:00,40.0,29.0,29.84,SW,222,0.0,0.0,65,0.00,,,0.08,,2013-02-14 22:21:00,
2013-02-14 17:32:00,39.0,28.0,29.85,SSW,202,1.0,8.0,65,0.00,,,0.08,,2013-02-14 22:32:00,
2013-02-14 17:42:00,39.0,28.0,29.85,SSW,202,1.0,8.0,65,0.00,,,0.08,,2013-02-14 22:42:00,
2013-02-14 17:51:00,39.0,29.0,29.85,NNE,22,0.0,0.0,66,0.00,,,0.08,,2013-02-14 22:51:00,
2013-02-14 18:01:00,38.0,28.0,29.85,East,90,0.0,0.0,66,0.00,,,0.08,,2013-02-14 23:01:00,
2013-02-14 18:11:00,38.0,28.0,29.85,East,90,0.0,0.0,66,0.00,,,0.08,,2013-02-14 23:11:00,
2013-02-14 18:21:00,38.0,28.0,29.85,NNE,22,0.0,0.0,67,0.00,,,0.08,,2013-02-14 23:21:00,
2013-02-14 18:32:00,37.0,27.0,29.86,NNE,22,0.0,0.0,67,0.00,,,0.08,,2013-02-14 23:32:00,
2013-02-14 18:42:00,37.0,27.0,29.86,NNE,22,0.0,0.0,67,0.00,,,0.08,,2013-02-14 23:42:00,
2013-02-14 18:52:00,36.0,26.0,29.87,NNE,22,0.0,0.0,68,0.00,,,0.08,,2013-02-14 23:52:00,
2013-02-14 19:01:00,36.0,26.0,29.86,NNE,22,0.0,0.0,68,0.00,,,0.08,,2013-02-15 00:01:00,
2013-02-14 19:11:00,36.0,26.0,29.86,NNE,22,0.0,0.0,68,0.00,,,0.08,,2013-02-15 00:11:00,
2013-02-14 19:22:00,36.0,27.0,29.86,NNW,338,0.0,0.0,69,0.00,,,0.08,,2013-02-15 00:22:00,
2013-02-14 19:32:00,35.0,26.0,29.87,North,0,0.0,0.0,69,0.00,,,0.08,,2013-02-15 00:32:00,
2013-02-14 19:42:00,35.0,26.0,29.87,North,0,0.0,0.0,69,0.00,,,0.08,,2013-02-15 00:42:00,
2013-02-14 19:51:00,35.0,26.0,29.87,SSW,202,0.0,0.0,69,0.00,,,0.08,,2013-02-15 00:51:00,
2013-02-14 20:02:00,36.0,27.0,29.87,SW,214,0.0,0.0,70,0.00,,,0.08,,2013-02-15 01:02:00,
2013-02-14 20:11:00,36.0,27.0,29.87,SW,214,0.0,0.0,70,0.00,,,0.08,,2013-02-15 01:11:00,
2013-02-14 20:21:00,36.0,27.0,29.87,WNW,290,0.0,2.0,70,0.00,,,0.08,,2013-02-15 01:21:00,
2013-02-14 20:32:00,36.0,27.0,29.87,WNW,290,0.0,2.0,70,0.00,,,0.08,,2013-02-15 01:32:00,
2013-02-14 20:41:00,36.0,27.0,29.87,WNW,290,0.0,2.0,70,0.00,,,0.08,,2013-02-15 01:41:00,
2013-02-14 20:51:00,36.0,27.0,29.87,SW,225,0.0,0.0,70,0.00,,,0.08,,2013-02-15 01:51:00,
2013-02-14 21:01:00,36.0,27.0,29.87,SW,225,0.0,0.0,70,0.00,,,0.08,,2013-02-15 02:01:00,
2013-02-14 21:11:00,36.0,27.0,29.87,SW,225,0.0,0.0,70,0.00,,,0.08,,2013-02-15 02:11:00,
2013-02-14 21:21:00,36.0,27.0,29.87,North,0,0.0,0.0,70,0.00,,,0.08,,2013-02-15 02:21:00,
2013-02-14 21:32:00,36.0,27.0,29.87,SW,225,0.0,0.0,70,0.00,,,0.08,,2013-02-15 02:32:00,
2013-02-14 21:41:00,36.0,27.0,29.87,SW,225,0.0,0.0,70,0.00,,,0.08,,2013-02-15 02:41:00,
2013-02-14 21:52:00,36.0,27.0,29.86,SSW,202,0.0,0.0,70,0.00,,,0.08,,2013-02-15 02:52:00,
2013-02-14 22:02:00,36.0,27.0,29.86,SSE,158,1.0,9.0,70,0.00,,,0.08,,2013-02-15 03:02:00,
2013-02-14 22:11:00,36.0,27.0,29.86,SSE,158,1.0,9.0,70,0.00,,,0.08,,2013-02-15 03:11:00,
2013-02-14 22:22:00,37.0,28.0,29.86,WSW,248,0.0,0.0,70,0.00,,,0.08,,2013-02-15 03:22:00,
2013-02-14 22:32:00,37.0,28.0,29.85,SW,225,0.0,8.0,70,0.00,,,0.08,,2013-02-15 03:32:00,
2013-02-14 22:42:00,37.0,28.0,29.85,SW,225,0.0,8.0,70,0.00,,,0.08,,2013-02-15 03:42:00,
2013-02-14 22:52:00,37.0,28.0,29.85,SW,223,2.0,6.0,69,0.00,,,0.08,,2013-02-15 03:52:00,
2013-02-14 23:01:00,37.0,28.0,29.85,SW,225,0.0,5.0,69,0.00,,,0.08,,2013-02-15 04:01:00,
2013-02-14 23:11:00,37.0,28.0,29.85,SW,225,0.0,5.0,69,0.00,,,0.08,,2013-02-15 04:11:00,
2013-02-14 23:21:00,37.0,28.0,29.85,SSW,198,2.0,6.0,69,0.00,,,0.08,,2013-02-15 04:21:00,
2013-02-14 23:32:00,37.0,28.0,29.85,SW,224,1.0,8.0,69,0.00,,,0.08,,2013-02-15 04:32:00,
2013-02-14 23:42:00,37.0,28.0,29.85,SW,224,1.0,8.0,69,0.00,,,0.08,,2013-02-15 04:42:00,
2013-02-14 23:52:00,38.0,28.0,29.87,West,262,1.0,7.0,68,0.00,,,0.08,,2013-02-15 04:52:00,